{"data":{"norad_id":65016,"epoch":"2026-05-24T19:30:52.185600Z","epoch_age_seconds":85022,"freshness":"FRESH","line1":"1 65016U 25161B   26144.81310400  .00018508  00000+0  63541-3 0  9990","line2":"2 65016  53.1595 300.6927 0000802  97.1319 262.9773 15.30201536 47097","mean_motion":15.30201536,"eccentricity":8.02e-5,"inclination_deg":53.1595,"raan_deg":300.6927,"arg_perigee_deg":97.1319,"mean_anomaly_deg":262.9773,"bstar":0.00063541,"rev_number":4709,"period_min":94.1052512445,"perigee_km":474.66084473587,"apogee_km":475.76012167218,"semimajor_km":6853.347483204,"source":"CELESTRAK","updated_at":"2026-05-25T13:38:20.637101Z"}}